User: anonymous   Login
Location: Milton
(43.5183°N, 79.8775°W)
Time: 22:20:24
(UTC+00:00)
Language:

Gurwin Techsat 1B - Orbit

View from above orbital plane
View from above orbital plane
View from above satellite
View from above satellite

Ground track
Ground track

The orbit data is extracted from the following two-line orbital elements,

1 25397U 98043D   24107.89838632  .00000350  00000-0  17225-3 0  9999
2 25397  98.9165  73.7261 0001375  24.5794 335.5449 14.24017101338692
Epoch (UTC): 16 April 2024 21:33:40
Eccentricity: 0.0001375
inclination: 98.9165°
perigee height: 811 km
apogee height: 813 km
right ascension of ascending node: 73.7261°
argument of perigee: 24.5794°
revolutions per day: 14.24017101
mean anomaly at epoch: 335.5449°
orbit number at epoch: 33869

The dashed part of the orbit path shows where the satellite is in the earth's shadow,  

DLR